Weather in Kutuzovka

Russia / Omsk Oblast     54°27′58″N   72°31′16″E
temp.,
°C
wind,
m/s
gust,
m/s
humid.,
%
clouds,
%
prec.,
mm/h
press.,
hPa
HPBL,
m
19 january, wed
wed1900:00−13sw411945 0.0 1025175
03:00−15sw411945 0.0 1025154
06:00−16sw410945 0.0 1025149
09:00−17sw49945 0.0 1026122
12:00−14sw49925 0.0 1026184
15:00−12sw499173 0.0 1026211
18:00−15sw499233 0.0 1027126
21:00−15sw38935 0.0 1027103
20 january, thu
thu2000:00−16sw489315 0.0 1028100
03:00−16sw48935 0.0 1029106
06:00−16wsw37937 0.0 102993
09:00−17sw349466 0.0 103157
12:00−14sw3692100 0.0 1031121
15:00−12sw369044 0.0 1031137
18:00−18ssw229494 0.0 103226
21:00−20ssw229675 0.0 103217
21 january, fri
fri2100:00−21sse33958 0.0 103225
03:00−22s2297100 0.0 103134
06:00−22s2298100 0.0 103112
09:00−20s2298100 0.0 103121
12:00−16sse249242 0.0 103176
15:00−13sse249128 0.0 103078
18:00−20sse22985 0.0 10319
21:00−21sse2210041 0.0 103219
22 january, sat
sat2200:00−21sse22997 0.0 103211
03:00−22sse22100100 0.0 103210
06:00−22se22100100 0.0 10339
09:00−22sse221005 0.0 103330
12:00−16s25915 0.0 103498
15:00−14sse22915 0.0 103435
18:00−20se22975 0.0 10359
21:00−22se229842 0.0 103610
23 january, sun
sun2300:00−23se229929 0.0 10379
03:00−24se229951 0.0 10379
06:00−24ese2210025 0.0 10389
09:00−25ese221005 0.0 10389
12:00−17se23928 0.0 103960
15:00−14ese229258 0.0 103947
18:00−20ese229854 0.0 10409
21:00−22e2210068 0.0 10409